< < Back
Terminal Aerodrome Forecast


Current Version              Previous Versions:   1  2  3  4  5  6  7  8  9  

Terminal Aerodrome Forecast

823
FTUS42 KFFC 202300
TAFCSG
TAF
KCSG 202338Z 2100/2124 VRB03KT P6SM SCT250
     FM211400 27006KT P6SM SKC
     FM211900 29010KT P6SM SCT050=



Latest METAR

153
SAUS70 KWBC 211600
MTRCSG
METAR KCSG 211551Z 27005KT 10SM CLR 27/15 A3006 RMK AO2 SLP175 T02720150
$


USA.gov is the U.S. government's official web portal to all federal, state and local government web resources and services.